Location: Arclight Observatory
(36.5667°N, 87.3333°W)
Time: 23:28:44
(UTC-06:00)

Hubble Space Telescope - Visible Passes

Search period start: 25 February 2017 00:00
Search period end: 07 March 2017 00:00
Orbit: 538 x 542 km, 28.5° (Epoch: 25 February)

Date Brightness Start Highest point End Pass type
(mag) Time Alt. Az. Time Alt. Az. Time Alt. Az.
25 Feb 3.0 18:17:06 10° S 18:19:08 13° SSE 18:21:09 10° SE visible
25 Feb 3.2 19:56:23 10° SW 19:57:31 16° SW 19:57:31 16° SW visible
26 Feb 2.9 18:06:31 10° SSW 18:09:03 16° SSE 18:11:34 10° SE visible
26 Feb 2.8 19:46:17 10° SW 19:48:14 21° SSW 19:48:14 21° SSW visible
27 Feb 2.4 19:36:12 10° SW 19:38:56 25° SSW 19:38:56 25° SSW visible
28 Feb 2.2 19:26:09 10° WSW 19:29:35 26° S 19:29:35 26° S visible
01 Mar 2.2 19:16:08 10° WSW 19:19:35 26° S 19:20:16 24° SSE visible
02 Mar 2.4 19:06:08 10° WSW 19:09:31 24° S 19:10:56 20° SSE visible
03 Mar 2.5 18:56:11 10° WSW 18:59:28 23° S 19:01:38 15° SSE visible
04 Mar 2.7 18:46:16 10° WSW 18:49:24 21° S 18:52:21 11° SE visible
05 Mar 2.9 18:36:24 10° WSW 18:39:20 19° SSW 18:42:15 10° SSE visible
06 Mar 3.1 18:26:38 10° SW 18:29:15 16° SSW 18:31:52 10° SSE visible
